{"data":{"norad_id":53740,"intl_designator":"2022-107AS","name":"STARLINK-4607","alt_names":[],"object_type":"PAYLOAD","status":"ACTIVE","operator":null,"country":"US","launch_date":"2022-09-05","launch_site_code":"AFETR","launch_vehicle":null,"mission":null,"orbit_class":"UNKNOWN","rcs_meters":null,"size_class":null,"mass_kg":null,"dimensions":null,"purposes":["comms"],"wikipedia_slug":null,"has_3d_model":false,"image_url":null,"decayed_at":null,"tle_current":{"epoch":"2026-09-20T22:00:03.000096Z","epoch_age_seconds":48524,"freshness":"FRESH","line1":"1 53740U 22107AS  26263.91670139  .00434136  00000+0  30218-2 0  9992","line2":"2 53740  53.1596  85.2200 0001212  74.6497 332.7160 15.72557184  5934","mean_motion":15.72557184,"eccentricity":0.0001212,"inclination_deg":53.1596,"raan_deg":85.22,"arg_perigee_deg":74.6497,"mean_anomaly_deg":332.716,"bstar":0.0030218,"rev_number":593,"period_min":91.570596901104,"perigee_km":350.77585195284,"apogee_km":352.40713814004,"semimajor_km":6729.7284950464,"source":"CELESTRAK","updated_at":"2026-09-21T09:00:32.989312Z"}}}